GW2929 Weather Reports


Display with metric or nautical units.
time (UTC)temp
F
wind
direction
speed
MPH
gust
MPH
rain 1hr
in
rain 24hr
in
rain mn
in
humidity
%
barometer
mb
20260901224907 91 219 1.0 1.0 0.00 0.00 0.00 70 1007.4
20260901224404 91 204 0.0 1.0 0.00 0.00 0.00 68 1007.4
20260901223900 91 210 2.0 2.0 0.00 0.00 0.00 68 1007.5
20260901223355 92 207 3.0 4.0 0.00 0.00 0.00 68 1007.4
20260901222851 92 225 2.0 3.0 0.00 0.00 0.00 68 1007.5
20260901222347 92 207 4.0 4.0 0.00 0.00 0.00 68 1007.5
20260901221843 91 211 1.0 1.0 0.00 0.00 0.00 69 1007.5
20260901221338 92 194 3.0 4.0 0.00 0.00 0.00 67 1007.3
20260901220837 93 215 3.0 7.0 0.00 0.00 0.00 66 1007.5
20260901220337 93 209 2.0 2.0 0.00 0.00 0.00 66 1007.5
20260901215836 93 215 0.0 1.0 0.00 0.00 0.00 66 1007.7
20260901215335 93 171 3.0 4.0 0.00 0.00 0.00 66 1007.5
20260901214833 95 188 5.0 7.0 0.00 0.00 0.00 63 1007.7
20260901214333 93 201 2.0 3.0 0.00 0.00 0.00 65 1007.8
20260901213828 93 183 4.0 4.0 0.00 0.00 0.00 62 1007.5
20260901213327 93 188 5.0 7.0 0.00 0.00 0.00 64 1008.0
20260901212822 94 196 2.0 3.0 0.00 0.00 0.00 65 1007.8
20260901212318 94 169 4.0 7.0 0.00 0.00 0.00 63 1007.8
20260901211814 95 258 5.0 7.0 0.00 0.00 0.00 61 1007.8
20260901211310 95 204 1.0 2.0 0.00 0.00 0.00 63 1007.9
20260901210805 96 153 1.0 2.0 0.00 0.00 0.00 60 1007.9
20260901210301 96 314 1.0 2.0 0.00 0.00 0.00 60 1007.7
20260901205757 96 202 4.0 7.0 0.00 0.00 0.00 59 1008.2
20260901205256 95 207 2.0 2.0 0.00 0.00 0.00 60 1007.8
20260901204751 95 210 2.0 3.0 0.00 0.00 0.00 61 1008.2
20260901204248 96 200 6.0 9.0 0.00 0.00 0.00 59 1008.2
20260901203748 95 202 4.0 6.0 0.00 0.00 0.00 60 1008.0
20260901203247 97 208 2.0 3.0 0.00 0.00 0.00 58 1008.2
20260901202742 96 179 2.0 3.0 0.00 0.00 0.00 57 1008.1
20260901202238 96 256 0.0 1.0 0.00 0.00 0.00 59 1008.3
20260901201733 96 220 3.0 4.0 0.00 0.00 0.00 59 1008.6
20260901201232 95 182 2.0 4.0 0.00 0.00 0.00 57 1008.5
20260901200726 96 191 2.0 2.0 0.00 0.00 0.00 58 1008.6
20260901200222 97 214 3.0 4.0 0.00 0.00 0.00 56 1008.6
20260901195720 97 264 1.0 2.0 0.00 0.00 0.00 56 1008.6
20260901195214 95 311 3.0 6.0 0.00 0.00 0.00 58 1008.7
20260901194710 96 197 2.0 6.0 0.00 0.00 0.00 54 1008.7
20260901194204 96 201 1.0 1.0 0.00 0.00 0.00 56 1008.8
20260901193700 96 342 3.0 3.0 0.00 0.00 0.00 56 1009.0
20260901193154 96 198 2.0 2.0 0.00 0.00 0.00 56 1009.1
20260901192649 96 215 3.0 3.0 0.00 0.00 0.00 55 1009.4
20260901192144 97 213 3.0 3.0 0.00 0.00 0.00 56 1009.3
20260901191640 97 173 2.0 2.0 0.00 0.00 0.00 51 1009.2
20260901191136 96 225 2.0 3.0 0.00 0.00 0.00 55 1009.2
20260901190632 96 234 1.0 2.0 0.00 0.00 0.00 54 1009.0
20260901190131 97 242 1.0 1.0 0.00 0.00 0.00 52 1009.3
20260901185630 97 176 5.0 7.0 0.00 0.00 0.00 51 1009.4
20260901185128 97 205 2.0 3.0 0.00 0.00 0.00 51 1009.6
20260901184624 97 230 2.0 3.0 0.00 0.00 0.00 51 1009.5
20260901184119 96 196 4.0 6.0 0.00 0.00 0.00 52 1009.6
20260901183615 96 215 1.0 2.0 0.00 0.00 0.00 54 1009.7
20260901183109 95 198 1.0 1.0 0.00 0.00 0.00 63 1009.6
20260901182606 95 273 4.0 4.0 0.00 0.00 0.00 63 1009.7
20260901182105 96 57 2.0 2.0 0.00 0.00 0.00 63 1009.8
20260901181604 95 230 2.0 4.0 0.00 0.00 0.00 64 1010.0
20260901181059 94 298 4.0 4.0 0.00 0.00 0.00 66 1010.0
20260901180558 94 247 3.0 4.0 0.00 0.00 0.00 65 1010.0
20260901180052 95 299 3.0 4.0 0.00 0.00 0.00 64 1010.2
20260901175545 94 52 2.0 3.0 0.00 0.00 0.00 69 1010.0
20260901175040 94 227 2.0 2.0 0.00 0.00 0.00 66 1010.1
20260901174536 93 230 2.0 2.0 0.00 0.00 0.00 71 1010.1
20260901174032 93 43 1.0 2.0 0.00 0.00 0.00 72 1010.2
20260901173526 95 144 6.0 9.0 0.00 0.00 0.00 70 1010.3
20260901173022 94 321 2.0 2.0 0.00 0.00 0.00 69 1010.4
20260901172517 94 196 2.0 2.0 0.00 0.00 0.00 68 1010.4
20260901172015 95 191 4.0 6.0 0.00 0.00 0.00 66 1010.5
20260901171514 94 220 2.0 4.0 0.00 0.00 0.00 66 1010.5
20260901171014 95 217 2.0 3.0 0.00 0.00 0.00 64 1010.6
20260901170508 94 193 2.0 2.0 0.00 0.00 0.00 66 1010.6
20260901170009 94 230 1.0 2.0 0.00 0.00 0.00 67 1010.7
20260901165502 92 263 4.0 4.0 0.00 0.00 0.00 69 1010.8
20260901164958 94 6 5.0 6.0 0.00 0.00 0.00 68 1010.7
20260901164453 94 219 1.0 1.0 0.00 0.00 0.00 67 1010.9
20260901163948 93 327 1.0 2.0 0.00 0.00 0.00 69 1010.8
20260901163444 94 357 4.0 7.0 0.00 0.00 0.00 67 1011.0
20260901162943 95 150 1.0 1.0 0.00 0.00 0.00 58 1010.9
20260901162438 95 222 1.0 2.0 0.00 0.00 0.00 60 1010.8
20260901161937 94 243 1.0 2.0 0.00 0.00 0.00 63 1010.8
20260901161437 93 192 0.0 1.0 0.00 0.00 0.00 66 1011.0
20260901160932 93 181 2.0 2.0 0.00 0.00 0.00 65 1011.2
20260901160428 92 214 0.0 1.0 0.00 0.00 0.00 67 1010.9
20260901155927 93 261 1.0 2.0 0.00 0.00 0.00 66 1011.0
20260901155422 93 219 2.0 2.0 0.00 0.00 0.00 67 1010.9
20260901154919 93 219 0.0 0.0 0.00 0.00 0.00 65 1010.8
20260901154417 93 234 1.0 2.0 0.00 0.00 0.00 67 1010.9
20260901153912 93 180 2.0 2.0 0.00 0.00 0.00 66 1010.7
20260901153412 91 213 1.0 1.0 0.00 0.00 0.00 69 1010.9
20260901152911 92 221 0.0 1.0 0.00 0.00 0.00 67 1010.6
20260901152406 91 224 1.0 1.0 0.00 0.00 0.00 69 1010.7
20260901151856 91 214 1.0 1.0 0.00 0.00 0.00 70 1010.7
20260901151355 90 181 1.0 1.0 0.00 0.00 0.00 71 1010.7
20260901150855 89 226 2.0 3.0 0.00 0.00 0.00 73 1010.6
20260901150352 90 203 0.0 0.0 0.00 0.00 0.00 73 1010.7
20260901145851 90 186 0.0 0.0 0.00 0.00 0.00 75 1010.7
20260901145350 89 223 1.0 1.0 0.00 0.00 0.00 74 1010.8
20260901144845 89 211 1.0 1.0 0.00 0.00 0.00 76 1010.9
20260901144341 89 232 2.0 2.0 0.00 0.00 0.00 76 1010.7
20260901143837 90 218 0.0 0.0 0.00 0.00 0.00 77 1011.0
20260901143333 89 222 1.0 1.0 0.00 0.00 0.00 78 1010.8
20260901142829 87 243 0.0 1.0 0.00 0.00 0.00 81 1010.7
20260901142328 88 207 1.0 1.0 0.00 0.00 0.00 81 1010.7
20260901141823 88 218 0.0 0.0 0.00 0.00 0.00 80 1010.7
20260901141318 87 220 1.0 1.0 0.00 0.00 0.00 81 1010.7
20260901140817 87 205 1.0 2.0 0.00 0.00 0.00 82 1010.6
20260901140315 86 208 0.0 0.0 0.00 0.00 0.00 83 1010.5
20260901135810 86 220 0.0 0.0 0.00 0.00 0.00 84 1010.4
20260901135311 86 234 0.0 0.0 0.00 0.00 0.00 84 1010.6
20260901134807 85 220 0.0 0.0 0.00 0.00 0.00 85 1010.5
20260901134307 86 203 0.0 0.0 0.00 0.00 0.00 85 1010.6
20260901133801 85 217 0.0 0.0 0.00 0.00 0.00 87 1010.4
20260901133300 85 217 0.0 0.0 0.00 0.00 0.00 87 1010.6
20260901132759 84 223 0.0 0.0 0.00 0.00 0.00 88 1010.3
20260901132254 84 217 0.0 0.0 0.00 0.00 0.00 88 1010.3
20260901131749 83 175 0.0 0.0 0.00 0.00 0.00 89 1010.3
20260901131248 82 207 0.0 0.0 0.00 0.00 0.00 91 1010.4
20260901130743 81 216 0.0 0.0 0.00 0.00 0.00 93 1010.2
20260901130243 81 218 0.0 0.0 0.00 0.00 0.00 94 1010.1
20260901125741 80 220 0.0 0.0 0.00 0.00 0.00 96 1010.2
20260901125235 80 221 0.0 0.0 0.00 0.00 0.00 97 1010.3
20260901124730 79 222 0.0 0.0 0.00 0.00 0.00 97 1010.2
20260901124225 79 222 0.0 0.0 0.00 0.00 0.00 97 1010.0
20260901123724 79 223 0.0 0.0 0.00 0.00 0.00 97 1010.0
20260901123220 79 224 0.0 0.0 0.00 0.00 0.00 97 1009.9
20260901122718 79 223 0.0 0.0 0.00 0.00 0.00 97 1009.9
20260901122213 79 223 0.0 0.0 0.00 0.00 0.00 96 1009.9
20260901121707 79 224 0.0 0.0 0.00 0.00 0.00 96 1009.7
20260901121203 79 224 0.0 0.0 0.00 0.00 0.00 96 1009.8
20260901120702 79 224 0.0 0.0 0.00 0.00 0.00 96 1009.6
20260901120157 80 224 0.0 0.0 0.00 0.00 0.00 96 1009.8
20260901115653 80 225 0.0 0.0 0.00 0.00 0.00 96 1009.6
20260901115149 80 224 0.0 0.0 0.00 0.00 0.00 96 1009.5
20260901114645 80 223 0.0 0.0 0.00 0.00 0.00 96 1009.7
20260901114145 80 222 0.0 0.0 0.00 0.00 0.00 96 1009.6
20260901113643 80 217 0.0 0.0 0.00 0.00 0.00 96 1009.5
20260901113138 80 218 0.0 0.0 0.00 0.00 0.00 96 1009.5
20260901112633 80 218 0.0 0.0 0.00 0.00 0.00 96 1009.5
20260901112127 80 222 0.0 0.0 0.00 0.00 0.00 96 1009.6
20260901111626 80 222 0.0 0.0 0.00 0.00 0.00 96 1009.7
20260901111126 80 219 0.0 0.0 0.00 0.00 0.00 96 1009.6
20260901110621 80 227 0.0 0.0 0.00 0.00 0.00 96 1009.5
20260901110116 80 221 0.0 0.0 0.00 0.00 0.00 96 1009.6
20260901105613 80 222 0.0 0.0 0.00 0.00 0.00 96 1009.6
20260901105106 80 222 0.0 0.0 0.00 0.00 0.00 96 1009.8
20260901104603 80 222 0.0 0.0 0.00 0.00 0.00 96 1009.5
20260901104057 81 218 0.0 0.0 0.00 0.00 0.00 96 1009.3
20260901103556 81 208 0.0 0.0 0.00 0.00 0.00 96 1009.3
20260901103052 81 216 0.0 0.0 0.00 0.00 0.00 96 1009.3
20260901102547 81 224 0.0 0.0 0.00 0.00 0.00 96 1009.2
20260901102042 81 202 0.0 0.0 0.00 0.00 0.00 96 1009.3
20260901101538 81 222 0.0 0.0 0.00 0.00 0.00 96 1009.4
20260901101036 81 221 0.0 0.0 0.00 0.00 0.00 96 1009.4
20260901100531 81 217 0.0 0.0 0.00 0.00 0.00 96 1009.5
20260901100031 81 217 0.0 0.0 0.00 0.00 0.00 96 1009.4
20260901095529 81 218 0.0 0.0 0.00 0.00 0.00 95 1009.4
20260901095027 81 222 0.0 0.0 0.00 0.00 0.00 95 1009.1
20260901094522 81 226 0.0 0.0 0.00 0.00 0.00 95 1009.2
20260901094021 81 223 0.0 0.0 0.00 0.00 0.00 95 1009.1
20260901093516 82 217 0.0 0.0 0.00 0.00 0.00 95 1009.2
20260901093011 82 218 0.0 0.0 0.00 0.00 0.00 95 1009.3
20260901092508 82 215 0.0 0.0 0.00 0.00 0.00 95 1009.4
20260901092003 82 218 0.0 0.0 0.00 0.00 0.00 95 1009.4
20260901091458 82 224 0.0 1.0 0.00 0.00 0.00 95 1009.6
20260901090953 82 218 0.0 0.0 0.00 0.00 0.00 95 1009.5
20260901090452 82 215 0.0 0.0 0.00 0.00 0.00 95 1009.3
20260901085948 82 202 0.0 0.0 0.00 0.00 0.00 95 1009.5
20260901085444 82 219 0.0 0.0 0.00 0.00 0.00 95 1009.6
20260901084940 82 222 0.0 0.0 0.00 0.00 0.00 94 1009.7
20260901084436 82 221 0.0 0.0 0.00 0.00 0.00 94 1009.4
20260901083931 82 215 0.0 0.0 0.00 0.00 0.00 94 1009.8
20260901083431 82 218 0.0 0.0 0.00 0.00 0.00 94 1009.5
20260901082929 82 215 0.0 0.0 0.00 0.00 0.00 94 1009.5
20260901082425 82 207 0.0 0.0 0.00 0.00 0.00 94 1009.5
20260901081919 82 207 0.0 0.0 0.00 0.00 0.00 94 1009.6
20260901081414 82 216 0.0 0.0 0.00 0.00 0.00 94 1009.6
20260901080909 82 217 0.0 0.0 0.00 0.00 0.00 94 1009.7
20260901080403 82 218 0.0 0.0 0.00 0.00 0.00 93 1009.8
20260901075858 82 176 0.0 1.0 0.00 0.00 0.00 93 1009.8
20260901075353 82 215 0.0 0.0 0.00 0.00 0.00 93 1009.8
20260901074847 82 213 0.0 0.0 0.00 0.00 0.00 93 1009.8
20260901074342 82 209 0.0 0.0 0.00 0.00 0.00 93 1009.8
20260901073838 82 188 0.0 0.0 0.00 0.00 0.00 93 1009.8
20260901073334 83 218 0.0 0.0 0.00 0.00 0.00 93 1009.7
20260901072829 83 215 0.0 0.0 0.00 0.00 0.00 93 1009.8
20260901072329 83 214 0.0 0.0 0.00 0.00 0.00 93 1009.8
20260901071824 83 216 0.0 0.0 0.00 0.00 0.00 92 1009.7
20260901071322 83 198 0.0 0.0 0.00 0.00 0.00 92 1009.8
20260901070821 83 211 0.0 0.0 0.00 0.00 0.00 92 1009.9
20260901070317 83 216 0.0 0.0 0.00 0.00 0.00 92 1009.8
20260901065816 83 207 0.0 0.0 0.00 0.00 0.00 92 1010.1
20260901065312 83 202 1.0 1.0 0.00 0.00 0.00 92 1009.9
20260901064808 83 206 1.0 2.0 0.00 0.00 0.00 92 1009.9
20260901064303 83 216 0.0 0.0 0.00 0.00 0.00 92 1009.9
20260901063801 83 218 0.0 0.0 0.00 0.00 0.00 92 1009.9
20260901063257 83 203 0.0 0.0 0.00 0.00 0.00 92 1010.0
20260901062753 83 215 0.0 0.0 0.00 0.00 0.00 91 1010.1
20260901062248 83 198 0.0 1.0 0.00 0.00 0.00 91 1009.9
20260901061744 83 206 0.0 0.0 0.00 0.00 0.00 91 1010.1
20260901061243 84 219 0.0 0.0 0.00 0.00 0.00 91 1010.2
20260901060739 84 211 0.0 0.0 0.00 0.00 0.00 91 1009.9
20260901060234 84 211 2.0 3.0 0.00 0.00 0.00 91 1010.0
20260901055729 84 213 0.0 1.0 0.00 0.00 0.00 91 1010.1
20260901055226 84 202 0.0 1.0 0.00 0.00 0.00 91 1010.1
20260901054723 84 130 2.0 3.0 0.00 0.00 0.00 91 1010.0
20260901054219 84 204 0.0 0.0 0.00 0.00 0.00 91 1009.8
20260901053715 84 197 2.0 2.0 0.00 0.00 0.00 91 1010.0
20260901053210 85 206 1.0 1.0 0.00 0.00 0.00 90 1009.8
20260901052705 85 191 1.0 2.0 0.00 0.00 0.00 90 1009.8
20260901052201 85 174 1.0 1.0 0.00 0.00 0.00 90 1009.8
20260901051659 85 238 0.0 1.0 0.00 0.00 0.00 89 1010.0
20260901051159 85 217 0.0 0.0 0.00 0.00 0.00 89 1010.2
20260901050654 85 197 0.0 0.0 0.00 0.00 0.00 88 1009.9
20260901050149 85 225 1.0 1.0 0.00 0.00 0.00 88 1009.8
20260901045644 85 211 0.0 0.0 0.00 0.00 0.00 88 1009.7
20260901045139 85 213 0.0 0.0 0.00 0.00 0.00 88 1009.8
20260901044634 85 210 1.0 1.0 0.00 0.00 0.00 88 1009.8
20260901044131 85 214 0.0 1.0 0.00 0.00 0.00 88 1009.9
20260901043626 85 205 0.0 0.0 0.00 0.00 0.00 88 1009.9
20260901043122 85 204 0.0 0.0 0.00 0.00 0.00 88 1009.9
20260901042620 85 212 0.0 0.0 0.00 0.00 0.00 88 1009.9
20260901042116 85 210 1.0 2.0 0.00 0.00 0.00 88 1010.0
20260901041612 85 215 0.0 0.0 0.00 0.00 0.00 88 1010.0
20260901041107 85 181 1.0 2.0 0.00 0.00 0.00 88 1010.0
20260901040606 85 204 0.0 0.0 0.00 0.00 0.00 88 1009.9
20260901040100 85 211 2.0 2.0 0.00 0.00 0.00 87 1010.2
20260901035559 85 213 0.0 0.0 0.00 0.00 0.00 87 1010.0
20260901035057 85 193 0.0 0.0 0.00 0.00 0.00 87 1010.4
20260901034551 85 219 0.0 1.0 0.00 0.00 0.00 87 1010.2
20260901034051 85 212 2.0 3.0 0.00 0.00 0.00 87 1010.2
20260901033550 85 202 2.0 3.0 0.00 0.00 0.00 87 1010.0
20260901033045 85 221 0.0 0.0 0.00 0.00 0.00 87 1009.8
20260901032544 85 126 1.0 1.0 0.00 0.00 0.00 87 1010.0
20260901032039 85 203 0.0 0.0 0.00 0.00 0.00 87 1009.8
20260901031534 85 167 1.0 1.0 0.00 0.00 0.00 87 1009.8
20260901031031 85 213 0.0 0.0 0.00 0.00 0.00 87 1009.7
20260901030530 85 186 0.0 1.0 0.00 0.00 0.00 87 1009.7
20260901030025 85 215 2.0 2.0 0.00 0.00 0.00 87 1009.4
20260901025519 85 211 0.0 1.0 0.00 0.00 0.00 87 1009.4
20260901025013 85 188 1.0 2.0 0.00 0.00 0.00 87 1009.3
20260901024508 85 215 3.0 6.0 0.00 0.00 0.00 86 1009.1
20260901024007 85 229 1.0 2.0 0.00 0.00 0.00 86 1009.1
20260901023501 85 220 0.0 0.0 0.00 0.00 0.00 86 1009.1
20260901022955 85 196 1.0 3.0 0.00 0.00 0.00 86 1008.9
20260901022451 85 217 0.0 1.0 0.00 0.00 0.00 86 1008.8
20260901021946 85 217 1.0 1.0 0.00 0.00 0.00 86 1008.8
20260901021442 85 221 0.0 0.0 0.00 0.00 0.00 86 1008.7
20260901020937 85 222 0.0 1.0 0.00 0.00 0.00 86 1008.6
20260901020432 85 214 3.0 4.0 0.00 0.00 0.00 86 1008.7
20260901015931 85 220 0.0 0.0 0.00 0.00 0.00 86 1008.4
20260901015428 85 202 1.0 1.0 0.00 0.00 0.00 87 1008.5
20260901014927 85 205 2.0 3.0 0.00 0.00 0.00 87 1008.4
20260901014424 85 210 0.0 0.0 0.00 0.00 0.00 87 1008.5
20260901013919 85 218 2.0 2.0 0.00 0.00 0.00 87 1008.2
20260901013414 86 207 0.0 0.0 0.00 0.00 0.00 87 1008.4
20260901012910 86 246 0.0 1.0 0.00 0.00 0.00 87 1008.5
20260901012404 86 201 0.0 1.0 0.00 0.00 0.00 87 1008.4
20260901011900 86 285 3.0 4.0 0.00 0.00 0.00 87 1008.4
20260901011356 86 206 1.0 3.0 0.00 0.00 0.00 87 1008.3
20260901010854 86 201 0.0 1.0 0.00 0.00 0.00 86 1008.3
20260901010349 86 218 1.0 1.0 0.00 0.00 0.00 87 1008.2
20260901005848 86 254 0.0 1.0 0.00 0.00 0.00 86 1008.4
20260901005343 86 191 2.0 4.0 0.00 0.00 0.00 86 1008.2
20260901004838 86 177 2.0 3.0 0.00 0.00 0.00 86 1008.1
20260901004332 86 224 3.0 6.0 0.00 0.00 0.00 85 1008.3
20260901003827 86 191 1.0 1.0 0.00 0.00 0.00 85 1008.2
20260901003322 87 213 1.0 1.0 0.00 0.00 0.00 83 1008.1
20260901002821 87 227 1.0 1.0 0.00 0.00 0.00 82 1008.0
20260901002315 87 228 1.0 2.0 0.00 0.00 0.00 81 1008.1
20260901001815 87 220 0.0 0.0 0.00 0.00 0.00 80 1007.9
20260901001312 87 216 2.0 3.0 0.00 0.00 0.00 79 1008.0
20260901000806 88 167 0.0 1.0 0.00 0.00 0.00 79 1008.1
20260901000303 88 252 0.0 0.0 0.00 0.00 0.00 78 1007.9
20260831235759 88 140 2.0 3.0 0.00 0.00 0.00 77 1008.1
20260831235255 89 224 3.0 6.0 0.00 0.00 0.00 76 1007.9
20260831234750 89 248 2.0 4.0 0.00 0.00 0.00 77 1007.9
20260831234249 89 216 2.0 4.0 0.00 0.00 0.00 76 1007.8
20260831233745 90 343 4.0 6.0 0.00 0.00 0.00 74 1007.8
20260831233240 90 329 1.0 2.0 0.00 0.00 0.00 73 1008.1
20260831232735 90 214 1.0 1.0 0.00 0.00 0.00 73 1007.8
20260831232231 90 209 4.0 6.0 0.00 0.00 0.00 73 1008.2
20260831231727 90 210 3.0 4.0 0.00 0.00 0.00 72 1007.9
20260831231224 91 216 1.0 2.0 0.00 0.00 0.00 71 1008.1
20260831230718 91 221 2.0 2.0 0.00 0.00 0.00 70 1008.0
20260831230213 91 213 2.0 2.0 0.00 0.00 0.00 71 1008.1
20260831225712 90 203 1.0 1.0 0.00 0.00 0.00 71 1008.1